Regional Weather Roundup
Issued by NWS Charleston, SC

Current Version | Previous Version | Text Only | Print | Product List | Glossary Off
Versions: 1 2 3 4 5 6 7 8 9 10 11 12 13 14 15 16 17 18 19 20 21 22 23 24 25 26 27 28 29 30 31 32 33 34 35 36 37 38 39 40 41 42 43 44 45 46 47 48 49 50

000
ASUS42 KCHS 292027
RWRCHS

REGIONAL WEATHER ROUNDUP
NATIONAL WEATHER SERVICE CHARLESTON SC
400 PM EDT SAT APR 29 2017

NOTE: "FAIR" INDICATES FEW OR NO CLOUDS BELOW 12,000 FEET WITH NO
SIGNIFICANT WEATHER AND/OR OBSTRUCTIONS TO VISIBILITY.

NOT ALL STATIONS ARE QUALITY CONTROLLED. USE DATA WITH CAUTION...
ESPECIALLY DEWPOINT OBSERVATIONS.

SCZ027-030-031-034>040-042>050-292100-
...SOUTHEAST SOUTH CAROLINA...

CITY           SKY/WX    TMP DP  RH WIND       PRES   REMARKS
N CHARLESTON   PTSUNNY   85  69  58 S14G23    30.19F
WATERFRONT PRK   N/A     79  72  79 S10       30.18F
JOHNS ISLAND   FAIR      81  72  74 S12G17    30.20F
PINOPOLIS        N/A     86  70  58 VRB3      30.11F HX  90
MONCKS CORNER  FAIR      82  66  57 S9G17     30.17F
SUMMERVILLE    FAIR      82  68  61 S9        30.18F
BEAUFORT MCAS  CLOUDY    82  72  71 SE10      30.19S
BEAUFORT ARPT  FAIR      81  70  69 S10       30.18F
HILTON HEAD IS MOSUNNY   79  72  78 S12G17    30.20F
WALTERBORO     CLOUDY    82  68  61 S14       30.18F
ALLENDALE      FAIR      88  66  48 SE12      30.13F HX  90

...SOUTHERN MIDLANDS AND PEE DEE...

CITY           SKY/WX    TMP DP  RH WIND       PRES   REMARKS
GEORGETOWN     FAIR      82  70  65 SW14      30.20F
KINGSTREE      FAIR      88  66  48 S9        30.15F HX  90
ORANGEBURG     MOSUNNY   86  67  52 S13       30.15F
BARNWELL       MOCLDY    90  70  51 SE9       30.14F HX  95
AIKEN          FAIR      84  68  58 SE8       30.17F
MANNING        FAIR      86  64  48 S20       30.16S
COLUMBIA       PTSUNNY   90  65  43 S13       30.13F HX  92
SUMTER         MOSUNNY   88  67  48 S9        30.13F HX  90
FLORENCE       MOSUNNY   89  68  49 SW10      30.15F HX  93
MYRTLE BEACH   MOSUNNY   81  73  78 S17       30.21S
N MYRTLE BEACH SUNNY     79  73  82 S15G23    30.20F

$$

GAZ063-065-086>088-099>101-113>116-118-119-134>141-150-292100-
...SOUTHEAST GEORGIA...

CITY           SKY/WX    TMP DP  RH WIND       PRES   REMARKS
SAVANNAH ARPT  PTSUNNY   85  66  53 S16G22    30.17F
HUNTER AAF     CLOUDY    83  75  76 S10G17    30.16F HX  90
FORT STEWART   MOSUNNY   87  67  51 SE13      30.13F HX  90
STATESBORO     MOSUNNY   89  65  46 SE6       30.13F HX  91
SYLVANIA       CLOUDY   N/A N/A N/A S8        30.14F
CLAXTON        FAIR      87  69  55 E7G16     30.13F HX  91

...CSRA...CENTRAL AND FAR SOUTHEAST GEORGIA...

CITY           SKY/WX    TMP DP  RH WIND       PRES   REMARKS
THOMSON        PTSUNNY   85  70  60 SW8       30.18F HX  90
AUGUSTA-BUSH   MOSUNNY   89  70  53 SE9       30.12F HX  94
AUGUSTA-DANIEL CLOUDY    89  66  46 S13       30.14F HX  91
SWAINSBORO     FAIR      90  63  40 SE9       30.13F HX  90
VIDALIA        MOSUNNY   91  63  38 S8        30.12F HX  92
EASTMAN        FAIR      91  44  19 S7        30.12F
HAZLEHURST     FAIR      91  65  41 S5        30.10F HX  93
ALMA           PTSUNNY   89  65  44 VRB7      30.11F HX  91
WAYCROSS       MOSUNNY   94  67  41 S7        30.11F HX  98
JESUP          FAIR      88  64  45 SE8G20    30.13F
BAXLEY         FAIR      90  70  51 S7        30.11F HX  95
BRUNSWICK      MOSUNNY   82  72  69 SE14G22   30.17F
SAINT SIMONS   MOSUNNY   82  71  69 SE15      30.17F

$$

SCZ027-028-034-036>038-045-046-048>050-GAZ119-141-292100-
...LAKE AND SUPPLEMENTAL COASTAL OBSERVATIONS...

STATION/POSITION TIME  TEMP    WIND        PRES    WAVE   SWELL
                       AIR SEA DIR/SP/G            HT/PER HT/PER/DIR
                 (UTC) (F)     (DEG/KT/KT) (MB)    (FT/S) (FT/S/D)
WINYAH BAY       1945   80     190/ 13     1022.0F
LAKE MURRAY      2020   92        CALM     1019.6
ACE BASIN NERRS  1930   82     160/  3     1022.0F
FORT PULASKI     2000   81 76  180/  8/ 12 1022.5
SAPELO ISLAND    1930   83     160/ 13     1022.0S

$$

ANZ835-935-AMZ111-154-330-350-352-354-370-450-454-472-292100-
...C-MAN AND BUOY OBSERVATIONS...

STATION/POSITION TIME  TEMP    WIND        PRES    WAVE   SWELL
                       AIR SEA DIR/SP/G            HT/PER HT/PER/DIR
                 (UTC) (F)     (DEG/KT/KT) (MB)    (FT/S) (FT/S/D)
BUOY 41004       2010   77 76  170/  6/  8 1022.9
BUOY 41008       1950   76 76  130/  6/  8 1021.9F   3/ 6   3/120/ 6
FOLLY BEACH CMAN 2000   78     170/  8/  9 1023.5F
CAPERS NEARSHORE 2008   78 77  190/ 10/ 12 1022.7F
FRIPP NEARSHORE  2008   76 78  170/  8/ 10 1022.2F


STATION/POSITION TIME  TEMP    WIND        PRES    WAVE   SWELL
                       AIR SEA DIR/SP/G            HT/PER HT/PER/DIR
                 (UTC) (F)     (DEG/KT/KT) (MB)    (FT/S) (FT/S/D)
5E ST. MARYS GA  2000      76                N/A     3/ 5
FRYING PAN BUOY  2010   76 74  190/  8/ 10 1023.4
BUOY 41025       1950   77 76  210/ 16/ 17 1022.9F   4/ 4   2/130/ 8
CAPE LOOKOUT NC  2000   77     210/ 13/ 15 1022.5F
BUOY 41002       1950   75 76  160/ 10/ 12 1024.7F   3/ 7   3/ 80/ 7
BUOY 41010       2010   78 78  120/ 14/ 16 1022.0
ST AUGUSTINE FL  2000   76 80  140/ 16/ 19 1021.9F


$$



USA.gov is the U.S. government's official web portal to all federal, state and local government web resources and services.